| time (UTC) | temp C | wind direction | speed KPH | gust KPH | rain 1hr cm | rain 24hr cm | rain mn cm | humidity % | barometer mb |
| 20260507112229 | 12 | 0 | 8.0 | 0.0 | 0.00 | 0.00 | 0.00 | 71 | |
| 20260507102413 | 12 | 0 | 8.0 | 0.0 | 0.00 | 0.00 | 0.00 | 71 | |
| 20260507092213 | 11 | 0 | 8.0 | 0.0 | 0.00 | 0.00 | 0.00 | 76 | |
| 20260507082212 | 10 | 0 | 8.0 | 0.0 | 0.00 | 0.00 | 0.00 | 81 | |
| 20260507072214 | 10 | 250 | 14.5 | 0.0 | 0.00 | 0.00 | 0.00 | 87 | |
| 20260507062212 | 7 | 210 | 19.3 | 0.0 | 0.00 | 0.00 | 0.00 | 93 | |
| 20260507052212 | 7 | 200 | 19.3 | 0.0 | 0.00 | 0.00 | 0.00 | 99 | |
| 20260507042414 | 7 | 200 | 11.3 | 0.0 | 0.00 | 0.00 | 0.00 | 99 | |
| 20260507032213 | 7 | 180 | 29.0 | 0.0 | 0.00 | 0.00 | 0.00 | 99 | |
| 20260507022211 | 7 | 170 | 32.2 | 0.0 | 0.00 | 0.00 | 0.00 | 93 | |
| 20260507012312 | 7 | 190 | 41.8 | 61.2 | 0.00 | 0.00 | 0.00 | 93 | |
| 20260507002212 | 7 | 200 | 35.4 | 57.9 | 0.00 | 0.00 | 0.00 | 93 | |
| 20260506232214 | 8 | 190 | 49.9 | 78.9 | 0.00 | 0.00 | 0.00 | 87 | |
| 20260506222443 | 10 | 190 | 49.9 | 72.4 | 0.00 | 0.00 | 0.00 | 81 | |
| 20260506212227 | 10 | 190 | 49.9 | 78.9 | 0.00 | 0.00 | 0.00 | 81 | |
| 20260506202245 | 11 | 190 | 53.1 | 72.4 | 0.00 | 0.00 | 0.00 | 71 | |
| 20260506192421 | 11 | 190 | 41.8 | 0.0 | 0.00 | 0.00 | 0.00 | 71 | |
| 20260506182317 | 12 | 180 | 41.8 | 0.0 | 0.00 | 0.00 | 0.00 | 66 | |
| 20260506172242 | 12 | 180 | 35.4 | 53.1 | 0.00 | 0.00 | 0.00 | 71 | |
| 20260506162444 | 12 | 180 | 29.0 | 0.0 | 0.00 | 0.00 | 0.00 | 62 | |
| 20260506152300 | 12 | 190 | 19.3 | 35.4 | 0.00 | 0.00 | 0.00 | 66 | |
| 20260506142228 | 13 | 200 | 14.5 | 0.0 | 0.00 | 0.00 | 0.00 | 58 | |
| 20260506132228 | 13 | 210 | 14.5 | 0.0 | 0.00 | 0.00 | 0.00 | 58 | |
| 20260506122228 | 16 | 220 | 11.3 | 0.0 | 0.00 | 0.00 | 0.00 | 55 |